Flag for Switzerland Weather past 2 weeks in Regensdorf, Zurich, Switzerland

Now
43 °F

Passing clouds.


Feels Like: 43 °F
Forecast: 43 / 61 °F
Wind: 1 mph from Northwest

Location: Zurich-Kloten

Current Time: Sep 24, 2014 at 3:05:19 AM

Latest Report: Sep 24, 2014 at 2:00 AM


Visibility: 16 mi

Pressure: 30.09 "Hg

Humidity: 96%

Dew point: 42 °F

Location of RegensdorfLocation

Historic Weather in Regensdorf — Graph

°F

Regensdorf temperature yesterday

Maximum temperature yesterday: 62 °F (at 4:00 PM)
Minimum temperature yesterday: 39 °F (at 7:00 AM)
Average temperature yesterday: 50 °F

Past Weeks' High & Low Weather Summary

 TemperatureHumidityPressure
High75 °F (Sep 9, 3:00 PM)100% (Sep 16, 5:00 AM)30.23 "Hg (Sep 16, 5:00 AM)
Low39 °F (Sep 23, 7:00 AM)47% (Sep 23, 5:00 PM)29.81 "Hg (Sep 17, 5:00 PM)
Average60 °F83%30.01 "Hg
* Reported Sep 9 1:00 AM — Sep 24 1:00 AM, Regensdorf, Weather by CustomWeather, © 2014

Note: Actual official high and low records may vary slightly from our data, if they occured in-between our weather recording intervals... More about our weather records

Advertising

Regensdorf weather history for previous 24 hours

 ConditionsComfort  
Time TempWeatherWind HumidityBarometerVisibility
1:00 AM
Sep 24
45 °FCool.2 mph91%30.09 "HgN/A
12:00 AM46 °FCool.5 mph87%30.09 "HgN/A
11:00 PM
Sep 23
46 °FPassing clouds.6 mph84%30.09 "Hg16 mi
10:00 PM49 °FCool.6 mph76%30.07 "HgN/A
9:00 PM50 °FCool.5 mph75%30.07 "HgN/A
8:00 PM55 °FPassing clouds.5 mph60%30.03 "Hg19 mi
7:00 PM59 °FRefreshingly cool.6 mph50%30.01 "HgN/A
6:00 PM61 °FRefreshingly cool.12 mph47%30.00 "HgN/A
5:00 PM62 °FPassing clouds.10 mph47%30.01 "Hg16 mi
4:00 PM62 °FMild.12 mph50%30.02 "HgN/A
3:00 PM61 °FRefreshingly cool.12 mph49%30.05 "HgN/A
2:00 PM59 °FPassing clouds.18 mph50%30.07 "Hg14 mi
1:00 PM58 °FRefreshingly cool.16 mph56%30.10 "HgN/A
12:00 PM54 °FCool.13 mph58%30.15 "HgN/A
11:00 AM53 °FCool.15 mph63%30.18 "HgN/A
10:00 AM49 °FCool.6 mph74%30.21 "HgN/A
9:00 AM45 °FQuite cool.6 mph88%30.22 "HgN/A
8:00 AM40 °FFog.5 mph94%30.23 "Hg6 mi
7:00 AM39 °FChilly.7 mph95%30.22 "HgN/A
6:00 AM41 °FQuite cool.7 mph94%30.21 "HgN/A
5:00 AM40 °FFog.5 mph93%30.22 "Hg6 mi
4:00 AM42 °FQuite cool.6 mph91%30.21 "HgN/A
3:00 AM42 °FQuite cool.8 mph89%30.21 "HgN/A
Weather by CustomWeather, © 2014

See weather overviewHow to use our weather pages